• In Austria
  • List of Countries
  • For 7 days
  • Water Temperature
  • Satellite Maps
  • Weather Map
  • News
  • Weather Widgets
  • user-avatar
    Login

    Hourly Weather Fez

    Today, 23 January, Tuesday

    Time Temperature Precipitation Wind Pressure Humidity
    00:00 +10°C° 0 mm 0 mps 736 mmHg 84%
    01:00 +10°C° 0 mm 0 mps 736 mmHg 83%
    02:00 +10°C° 0 mm 0 mps 735 mmHg 83%
    03:00 +10°C° 0 mm 0 mps 735 mmHg 82%
    04:00 +9°C° 0 mm 0 mps 735 mmHg 81%
    05:00 +9°C° 0 mm 0 mps 735 mmHg 80%
    06:00 +9°C° 0 mm 0 mps 735 mmHg 79%
    07:00 +10°C° 0 mm 0 mps 735 mmHg 74%
    08:00 +12°C° 0 mm 0 mps 736 mmHg 69%
    09:00 +13°C° 0 mm 0 mps 736 mmHg 64%
    10:00 +15°C° 0 mm 0 mps 736 mmHg 58%
    11:00 +18°C° 0 mm 1 mps 736 mmHg 52%
    12:00 +20°C° 0 mm 1 mps 736 mmHg 46%
    13:00 +20°C° 0 mm 1 mps 736 mmHg 45%
    14:00 +21°C° 0 mm 1 mps 736 mmHg 45%
    15:00 +21°C° 0 mm 1 mps 735 mmHg 44%
    16:00 +19°C° 0 mm 1 mps 735 mmHg 52%
    17:00 +18°C° 0 mm 1 mps 735 mmHg 60%
    18:00 +15°C° 0 mm 1 mps 735 mmHg 68%
    19:00 +13°C° 0 mm 0 mps 735 mmHg 69%
    20:00 +13°C° 0 mm 0 mps 735 mmHg 70%
    21:00 +12°C° 0 mm 0 mps 736 mmHg 71%
    22:00 +12°C° 0 mm 0 mps 736 mmHg 70%
    23:00 +12°C° 0 mm 0 mps 736 mmHg 69%

    Tomorrow, 24 January, Wednesday

    Time Temperature Precipitation Wind Pressure Humidity
    00:00 +11°C° 0 mm 0 mps 736 mmHg 68%
    01:00 +11°C° 0 mm 0 mps 735 mmHg 65%
    02:00 +12°C° 0 mm 1 mps 735 mmHg 62%
    03:00 +12°C° 0 mm 1 mps 735 mmHg 60%
    04:00 +12°C° 0 mm 1 mps 735 mmHg 58%
    05:00 +12°C° 0 mm 1 mps 735 mmHg 56%
    06:00 +11°C° 0 mm 1 mps 735 mmHg 55%
    07:00 +13°C° 0 mm 1 mps 735 mmHg 53%
    08:00 +13°C° 0 mm 0 mps 735 mmHg 52%
    09:00 +14°C° 0 mm 0 mps 736 mmHg 50%
    10:00 +18°C° 0 mm 1 mps 736 mmHg 45%
    11:00 +20°C° 0 mm 1 mps 736 mmHg 40%
    12:00 +21°C° 0 mm 1 mps 736 mmHg 35%
    13:00 +22°C° 0 mm 1 mps 735 mmHg 35%
    14:00 +22°C° 0 mm 1 mps 735 mmHg 35%
    15:00 +22°C° 0 mm 1 mps 735 mmHg 36%
    16:00 +20°C° 0 mm 1 mps 735 mmHg 44%
    17:00 +18°C° 0 mm 1 mps 735 mmHg 52%
    18:00 +15°C° 0 mm 1 mps 735 mmHg 60%
    19:00 +15°C° 0 mm 1 mps 735 mmHg 62%
    20:00 +13°C° 0 mm 0 mps 735 mmHg 65%
    21:00 +12°C° 0 mm 0 mps 735 mmHg 67%
    22:00 +12°C° 0 mm 0 mps 735 mmHg 67%
    23:00 +12°C° 0 mm 0 mps 735 mmHg 67%

    Day after tomorrow, 25 January, Thursday

    Time Temperature Precipitation Wind Pressure Humidity
    00:00 +12°C° 0 mm 0 mps 735 mmHg 67%
    01:00 +11°C° 0 mm 0 mps 735 mmHg 67%
    02:00 +11°C° 0 mm 0 mps 734 mmHg 67%
    03:00 +11°C° 0 mm 0 mps 734 mmHg 68%
    04:00 +10°C° 0 mm 0 mps 734 mmHg 68%
    05:00 +10°C° 0 mm 0 mps 734 mmHg 68%
    06:00 +10°C° 0 mm 0 mps 734 mmHg 68%
    07:00 +11°C° 0 mm 0 mps 735 mmHg 65%
    08:00 +12°C° 0 mm 0 mps 735 mmHg 62%
    09:00 +13°C° 0 mm 0 mps 736 mmHg 60%
    10:00 +16°C° 0 mm 1 mps 736 mmHg 56%
    11:00 +18°C° 0 mm 1 mps 735 mmHg 53%
    12:00 +18°C° 0 mm 2 mps 735 mmHg 50%
    13:00 +19°C° 0 mm 2 mps 735 mmHg 51%
    14:00 +19°C° 0 mm 2 mps 735 mmHg 51%
    15:00 +19°C° 0 mm 3 mps 734 mmHg 52%
    16:00 +17°C° 0 mm 3 mps 734 mmHg 62%
    17:00 +16°C° 0 mm 2 mps 734 mmHg 72%
    18:00 +14°C° 0 mm 2 mps 734 mmHg 82%
    19:00 +14°C° 0.1 mm 2 mps 735 mmHg 85%
    20:00 +13°C° 0.1 mm 1 mps 735 mmHg 88%
    21:00 +13°C° 0.1 mm 1 mps 735 mmHg 91%
    22:00 +13°C° 0 mm 1 mps 735 mmHg 92%
    23:00 +12°C° 0 mm 1 mps 735 mmHg 93%

    26 January, Friday

    Time Temperature Precipitation Wind Pressure Humidity
    00:00 +12°C° 0 mm 1 mps 735 mmHg 94%
    01:00 +11°C° 0.1 mm 1 mps 735 mmHg 94%
    02:00 +11°C° 0.1 mm 1 mps 735 mmHg 93%
    03:00 +11°C° 0.1 mm 1 mps 735 mmHg 93%
    04:00 +10°C° 0.2 mm 2 mps 735 mmHg 91%
    05:00 +10°C° 0.2 mm 3 mps 735 mmHg 90%
    06:00 +10°C° 0.2 mm 3 mps 736 mmHg 88%
    07:00 +10°C° 0.1 mm 4 mps 736 mmHg 84%
    08:00 +10°C° 0.1 mm 4 mps 736 mmHg 81%
    09:00 +8°C° 0.1 mm 4 mps 737 mmHg 77%
    10:00 +10°C° 0 mm 4 mps 737 mmHg 67%
    11:00 +11°C° 0 mm 4 mps 737 mmHg 58%
    12:00 +12°C° 0 mm 5 mps 737 mmHg 48%
    13:00 +12°C° 0 mm 4 mps 737 mmHg 46%
    14:00 +12°C° 0 mm 4 mps 737 mmHg 44%
    15:00 +12°C° 0 mm 4 mps 737 mmHg 42%
    16:00 +11°C° 0 mm 3 mps 737 mmHg 48%
    17:00 +10°C° 0 mm 2 mps 738 mmHg 54%
    18:00 +8°C° 0 mm 2 mps 738 mmHg 61%
    19:00 +9°C° 0 mm 1 mps 738 mmHg 62%
    20:00 +8°C° 0 mm 1 mps 739 mmHg 64%
    21:00 +8°C° 0 mm 1 mps 739 mmHg 66%
    22:00 +7°C° 0 mm 1 mps 739 mmHg 66%
    23:00 +7°C° 0 mm 1 mps 739 mmHg 65%

    27 January, Saturday

    Time Temperature Precipitation Wind Pressure Humidity
    00:00 +6°C° 0 mm 0 mps 739 mmHg 65%
    01:00 +5°C° 0 mm 0 mps 739 mmHg 64%
    02:00 +5°C° 0 mm 0 mps 739 mmHg 63%
    03:00 +5°C° 0 mm 0 mps 738 mmHg 61%
    04:00 +5°C° 0 mm 0 mps 738 mmHg 59%
    05:00 +5°C° 0 mm 0 mps 738 mmHg 57%
    06:00 +4°C° 0 mm 0 mps 738 mmHg 55%
    07:00 +6°C° 0 mm 0 mps 738 mmHg 51%
    08:00 +7°C° 0 mm 0 mps 738 mmHg 48%
    09:00 +8°C° 0 mm 0 mps 739 mmHg 44%
    10:00 +10°C° 0 mm 1 mps 738 mmHg 42%
    11:00 +12°C° 0 mm 1 mps 738 mmHg 39%
    12:00 +13°C° 0 mm 2 mps 738 mmHg 36%
    13:00 +13°C° 0 mm 2 mps 737 mmHg 37%
    14:00 +13°C° 0 mm 2 mps 736 mmHg 38%
    15:00 +13°C° 0 mm 3 mps 736 mmHg 39%
    16:00 +12°C° 0 mm 2 mps 736 mmHg 47%
    17:00 +10°C° 0 mm 2 mps 736 mmHg 55%
    18:00 +9°C° 0 mm 1 mps 736 mmHg 63%
    19:00 +9°C° 0 mm 1 mps 736 mmHg 65%
    20:00 +8°C° 0 mm 1 mps 736 mmHg 68%
    21:00 +8°C° 0 mm 1 mps 736 mmHg 70%
    22:00 +7°C° 0 mm 1 mps 736 mmHg 69%
    23:00 +7°C° 0 mm 1 mps 736 mmHg 68%

    28 January, Sunday

    Time Temperature Precipitation Wind Pressure Humidity
    00:00 +7°C° 0 mm 1 mps 735 mmHg 68%
    01:00 +7°C° 0 mm 1 mps 735 mmHg 67%
    02:00 +7°C° 0 mm 1 mps 734 mmHg 66%
    03:00 +6°C° 0 mm 1 mps 733 mmHg 65%
    04:00 +6°C° 0 mm 1 mps 733 mmHg 65%
    05:00 +6°C° 0 mm 1 mps 732 mmHg 64%
    06:00 +6°C° 0 mm 1 mps 732 mmHg 64%
    07:00 +7°C° 0.3 mm 1 mps 732 mmHg 65%
    08:00 +7°C° 0.3 mm 1 mps 732 mmHg 66%
    09:00 +8°C° 0.3 mm 1 mps 733 mmHg 67%
    10:00 +9°C° 0.3 mm 1 mps 733 mmHg 65%
    11:00 +10°C° 0.3 mm 1 mps 733 mmHg 63%
    12:00 +10°C° 0.3 mm 2 mps 733 mmHg 61%
    13:00 +12°C° 0 mm 2 mps 733 mmHg 59%
    14:00 +11°C° 0 mm 3 mps 732 mmHg 56%
    15:00 +12°C° 0 mm 4 mps 732 mmHg 54%
    16:00 +10°C° 0 mm 4 mps 732 mmHg 56%
    17:00 +8°C° 0 mm 4 mps 733 mmHg 58%
    18:00 +8°C° 0 mm 3 mps 733 mmHg 60%
    19:00 +7°C° 0 mm 3 mps 733 mmHg 62%
    20:00 +7°C° 0 mm 3 mps 733 mmHg 64%
    21:00 +6°C° 0 mm 2 mps 734 mmHg 66%
    22:00 +6°C° 0 mm 2 mps 733 mmHg 67%
    23:00 +7°C° 0 mm 1 mps 733 mmHg 67%
    Show more